Volver al catálogo

COSMOS 1275 DEB

ActivoPO
NORAD 12698·DEBRIS·🇷🇺 Russia

Lanzado Jun 4, 1981 desde Plesetsk Cosmodrome

Loading…

Próximos Pases (próximas 24 horas)

TLE

ActualizadoSource: Space-Track

Época: Sep 14, 2026, 05:05 UTC

1 12698U 81053AS  26257.21242977  .00002468  00000-0  84649-3 0  9993
2 12698  82.8997 337.3305 0011145 101.8062 258.4379 14.35814581304268

Sigue COSMOS 1275 DEB en tiempo real con AllMySat

Download on the App Store